Location: Mohawk View
(42.7837°N, 73.7885°W)
Time: 16:49:24
(UTC+00:00)

FALCON 9 DEB - Pass Details

Date: 17 June 2021
Orbit: 422 x 432 km, 53.0° (Epoch: 01 August)

Event Time Altitude Azimuth Distance (km) Brightness Sun altitude
Rises 01:54:35 0° 224° (SW) 2,389 6.8 -11.8°
Reaches altitude 10° 01:56:42 10° 221° (SW) 1,524 5.8 -12.0°
Maximum altitude 02:00:05 62° 140° (SE) 485 3.0 -12.4°
Drops below altitude 10° 02:03:28 10° 59° (ENE) 1,526 5.8 -12.8°
Sets 02:05:35 0° 56° (ENE) 2,393 6.8 -13.1°
